Date String (YYYY-MM-DD hh:mm:ss) UTC,Instrument flags,Ambient pressure (hPa),Sample flow (lpm),Bypass flow (lpm),Sample temperature (°C),Ambient temperature (°C),ASC tube jacket temperature (°C),LED temperature (°C),Box temperature (°C),Sample RH (%),Span deviation,Mass concentration (μg/m³),Mass concentration (μg/m³),Mass concentration (μg/m³)
DateTimeUTC,F1_M11,P_M11,Q1_M11,Q2_M11,T1_M11,T2_M11,T3_M11,T4_M11,T5_M11,U1_M11,ZSPAN_M11,X0_M11,X2_M11,X1_M11
2022-04-18 23:00:00,,0826.8,5.00,0.00,28.8,28.2,00.0,37.5,30.7,09.6,0004.3,0025.49,0009.20,0006.49
2022-04-18 23:01:00,,0826.8,4.99,0.00,28.8,28.2,00.0,37.6,30.7,09.6,0003.2,0025.27,0009.13,0006.49
2022-04-18 23:02:00,,0826.7,5.01,0.00,28.8,28.3,00.0,37.6,30.7,09.6,0004.0,0025.95,0009.13,0006.50
2022-04-18 23:03:00,,0826.8,5.01,0.00,28.9,28.3,00.0,37.6,30.7,09.6,0004.1,0026.29,0009.18,0006.53
2022-04-18 23:04:00,,0826.8,4.99,0.00,28.9,28.3,00.0,37.6,30.7,09.6,0004.0,0027.94,0009.27,0006.58
2022-04-18 23:05:00,,0826.7,5.00,0.00,28.9,28.3,00.0,37.6,30.8,09.6,0003.7,0028.13,0009.35,0006.59
2022-04-18 23:06:00,,0826.8,5.01,0.00,28.9,28.3,00.0,37.6,30.8,09.5,0002.7,0027.92,0009.39,0006.60
2022-04-18 23:07:00,,0826.8,5.01,0.00,28.9,28.3,00.0,37.7,30.8,09.5,0003.0,0029.03,0009.42,0006.61
2022-04-18 23:08:00,,0826.8,4.99,0.00,29.0,28.3,00.0,37.7,30.8,09.5,0002.9,0030.01,0009.36,0006.63
2022-04-18 23:09:00,,0826.7,4.99,0.00,29.0,28.3,00.0,37.7,30.8,09.5,0002.3,0030.22,0009.43,0006.66
2022-04-18 23:10:00,,0826.7,4.99,0.00,29.0,28.4,00.0,37.7,30.8,09.5,0003.0,0030.74,0009.51,0006.68
2022-04-18 23:11:00,,0826.7,4.99,0.00,29.0,28.4,00.0,37.7,30.8,09.5,0003.3,0030.99,0009.63,0006.70
2022-04-18 23:12:00,,0826.7,5.01,0.00,29.0,28.4,00.0,37.7,30.8,09.5,0003.7,0030.67,0009.71,0006.72
2022-04-18 23:13:00,,0826.7,5.00,0.00,29.0,28.4,00.0,37.8,30.9,09.5,0003.8,0030.65,0009.70,0006.74
2022-04-18 23:14:00,,0826.6,5.00,0.00,29.0,28.4,00.0,37.8,30.9,09.6,0003.8,0030.04,0009.70,0006.71
2022-04-18 23:15:00,,0826.6,4.99,0.00,29.1,28.4,00.0,37.8,30.9,09.7,0003.8,0029.62,0009.64,0006.69
2022-04-18 23:16:00,,0826.6,4.99,0.00,29.1,28.4,00.0,37.8,30.9,09.5,0003.5,0029.31,0009.54,0006.65
2022-04-18 23:17:00,,0826.6,4.99,0.00,29.1,28.4,00.0,37.8,30.9,09.6,0003.7,0030.67,0009.45,0006.60
2022-04-18 23:18:00,,0826.6,5.00,0.00,29.1,28.5,00.0,37.8,30.9,09.5,0004.2,0030.91,0009.41,0006.59
2022-04-18 23:19:00,,0826.5,5.00,0.00,29.1,28.5,00.0,37.8,30.9,09.4,0004.3,0028.66,0009.39,0006.58
2022-04-18 23:20:00,,0826.5,5.01,0.00,29.1,28.5,00.0,37.9,30.9,09.5,0004.8,0028.93,0009.36,0006.55
2022-04-18 23:21:00,,0826.5,5.01,0.00,29.1,28.5,00.0,37.9,31.0,09.4,0004.2,0028.90,0009.29,0006.53
2022-04-18 23:22:00,,0826.5,5.00,0.00,29.1,28.5,00.0,37.9,31.0,09.5,0003.4,0028.46,0009.15,0006.51
2022-04-18 23:23:00,,0826.5,4.99,0.00,29.1,28.5,00.0,37.9,31.0,09.4,0003.4,0028.49,0009.13,0006.51
2022-04-18 23:24:00,,0826.5,5.00,0.00,29.2,28.5,00.0,37.9,31.0,09.4,0003.8,0028.43,0009.12,0006.50
2022-04-18 23:25:00,,0826.5,5.01,0.00,29.2,28.5,00.0,37.9,31.0,09.4,0003.8,0029.67,0009.11,0006.53
2022-04-18 23:26:00,,0826.5,5.00,0.00,29.2,28.5,00.0,37.9,31.0,09.4,0002.9,0029.90,0009.19,0006.54
2022-04-18 23:27:00,,0826.5,4.99,0.00,29.2,28.6,00.0,38.0,31.0,09.5,0000.0,0029.87,0009.28,0006.53
2022-04-18 23:28:00,,0826.5,5.00,0.00,29.2,28.6,00.0,38.0,31.0,09.4,0000.0,0028.40,0009.34,0006.54
2022-04-18 23:29:00,,0826.5,5.00,0.00,29.2,28.6,00.0,38.0,31.0,09.5,0000.0,0027.29,0009.28,0006.54
2022-04-18 23:30:00,,0826.5,5.00,0.00,29.2,28.6,00.0,38.0,31.1,09.4,0000.0,0028.26,0009.27,0006.52
2022-04-18 23:31:00,,0826.5,5.00,0.00,29.2,28.6,00.0,38.0,31.1,09.3,0000.0,0027.93,0009.27,0006.53
2022-04-18 23:32:00,,0826.4,5.00,0.00,29.3,28.6,00.0,38.0,31.1,09.4,0000.0,0029.69,0009.34,0006.54
2022-04-18 23:33:00,,0826.3,5.01,0.00,29.3,28.6,00.0,38.0,31.1,09.4,0000.0,0029.96,0009.36,0006.54
2022-04-18 23:34:00,,0826.3,4.99,0.00,29.3,28.6,00.0,38.0,31.1,09.5,0000.0,0029.68,0009.33,0006.53
2022-04-18 23:35:00,,0826.3,5.00,0.00,29.3,28.6,00.0,38.1,31.1,09.4,0000.0,0029.94,0009.30,0006.49
2022-04-18 23:36:00,,0826.2,4.99,0.00,29.3,28.7,00.0,38.1,31.1,09.4,0000.0,0028.65,0009.23,0006.44
2022-04-18 23:37:00,,0826.2,5.01,0.00,29.3,28.7,00.0,38.1,31.1,09.4,0000.0,0028.58,0009.14,0006.41
2022-04-18 23:38:00,,0826.3,4.99,0.00,29.3,28.7,00.0,38.1,31.2,09.4,0006.2,0028.40,0009.07,0006.39
2022-04-18 23:39:00,,0826.2,5.00,0.00,29.3,28.7,00.0,38.1,31.2,09.4,0000.9,0030.65,0009.01,0006.38
2022-04-18 23:40:00,,0826.2,5.01,0.00,29.4,28.7,00.0,38.1,31.2,09.4,0005.8,0030.78,0009.03,0006.36
2022-04-18 23:41:00,,0826.2,5.01,0.00,29.4,28.7,00.0,38.1,31.2,09.3,0005.7,0030.07,0008.98,0006.35
2022-04-18 23:42:00,,0826.2,4.99,0.00,29.4,28.7,00.0,38.1,31.2,09.3,0005.6,0029.49,0008.98,0006.31
2022-04-18 23:43:00,,0826.2,4.99,0.00,29.4,28.7,00.0,38.2,31.2,09.2,0005.4,0028.93,0008.92,0006.29
2022-04-18 23:44:00,,0826.1,5.00,0.00,29.4,28.7,00.0,38.2,31.2,09.2,0005.2,0027.68,0008.92,0006.29
2022-04-18 23:45:00,,0826.1,5.00,0.00,29.4,28.8,00.0,38.2,31.2,09.2,0005.4,0028.59,0008.94,0006.29
2022-04-18 23:46:00,,0826.1,5.02,0.00,29.4,28.8,00.0,38.2,31.3,09.2,0004.8,0028.21,0009.02,0006.32
2022-04-18 23:47:00,,0826.1,4.99,0.00,29.5,28.8,00.0,38.2,31.3,09.2,0004.3,0028.64,0009.04,0006.35
2022-04-18 23:48:00,,0826.1,5.00,0.00,29.5,28.8,00.0,38.2,31.3,09.2,0003.8,0027.77,0009.03,0006.37
2022-04-18 23:49:00,,0826.1,5.01,0.00,29.5,28.8,00.0,38.2,31.3,09.2,0003.7,0027.48,0009.00,0006.41
2022-04-18 23:50:00,,0826.1,5.00,0.00,29.5,28.8,00.0,38.2,31.3,09.2,0004.2,0025.51,0009.02,0006.44
2022-04-18 23:51:00,,0826.1,4.99,0.00,29.5,28.8,00.0,38.3,31.3,09.2,0004.6,0024.80,0009.02,0006.44
2022-04-18 23:52:00,,0826.1,5.01,0.00,29.5,28.8,00.0,38.3,31.3,09.2,0005.3,0025.54,0009.06,0006.45
2022-04-18 23:53:00,,0826.1,5.01,0.00,29.5,28.9,00.0,38.3,31.3,09.2,0005.2,0026.69,0009.11,0006.45
2022-04-18 23:54:00,,0826.0,4.99,0.00,29.5,28.9,00.0,38.3,31.3,09.2,0005.1,0026.55,0009.22,0006.45
2022-04-18 23:55:00,,0826.0,4.99,0.00,29.6,28.9,00.0,38.3,31.3,09.2,0005.7,0027.22,0009.26,0006.44
2022-04-18 23:56:00,,0826.0,4.99,0.00,29.6,28.9,00.0,38.3,31.4,09.2,0005.2,0027.72,0009.31,0006.46
2022-04-18 23:57:00,,0826.0,5.02,0.00,29.6,28.9,00.0,38.4,31.4,09.1,0005.1,0027.66,0009.18,0006.45
2022-04-18 23:58:00,,0825.9,4.99,0.00,29.6,28.9,00.0,38.4,31.4,09.0,0005.2,0027.09,0009.28,0006.51
2022-04-18 23:59:00,,0825.9,4.98,0.00,29.6,28.9,00.0,38.4,31.4,09.0,0005.2,0027.67,0009.38,0006.57
